Location: Burla
(50.9568°N, 10.4983°E)
Time: 01:56:23
(UTC+00:00)

Cosmos 540 Rocket - Pass Details

Date: 18 January 2026
Orbit: 736 x 746 km, 74.1° (Epoch: 6 February)

Event Time Altitude Azimuth Distance (km) Brightness Sun altitude
Exits shadow 04:40:31 18° 349° (N) 1,752 5.2 -23.2°
Maximum altitude 04:44:07 51° 60° (ENE) 926 4.2 -22.7°
Drops below altitude 10° 04:49:03 10° 136° (SE) 2,242 6.6 -21.9°
Sets 04:51:28 0° 142° (SE) 3,162 7.4 -21.5°
